ID Time Temp Humidity Light PM2.5 PM10 Voltage Extra Firmware Position Fcnt Gateways Distance RSSI LSNR Radiosettings
2020-11-23 19:33:11 0.5°C 87.9375% 3.44V 0,0,0,0,0,0,0,0,0,0,0,0 v255 52.1331 / 6.72049 375 - -87 13 868.3Mhz, SF9BW125, 4/5CR
2020-11-23 19:17:00 0.375°C 86.875% 3.44V 0,0,0,0,0,0,0,0,0,0,0,0 v255 52.1331 / 6.72049 374 - -88 12.2 867.9Mhz, SF9BW125, 4/5CR
2020-11-23 19:00:49 0.25°C -3.1875% 3.44V 0,0,0,0,0,0,0,0,0,0,0,0 v255 52.1331 / 6.72049 373 - -88 11.8 868.1Mhz, SF9BW125, 4/5CR
2020-11-23 18:44:38 0.4375°C 118.688% 3.44V 0,0,0,0,0,0,0,0,0,0,0,0 v255 52.1331 / 6.72049 372 - -91 13.5 867.7Mhz, SF9BW125, 4/5CR
2020-11-23 18:28:27 0.4375°C 101.875% 3.44V 0,0,0,0,0,0,0,0,0,0,0,0 v255 52.1331 / 6.72049 371 - -89 9.2 868.5Mhz, SF9BW125, 4/5CR
2020-11-23 18:12:16 0.75°C 110.875% 3.44V 0,0,0,0,0,0,0,0,0,0,0,0 v255 52.1331 / 6.72049 370 - -89 9 867.5Mhz, SF9BW125, 4/5CR
2020-11-23 17:56:05 1°C 110.5% 3.44V 0,0,0,0,0,0,0,0,0,0,0,0 v255 52.1331 / 6.72049 369 - -87 12.8 868.3Mhz, SF9BW125, 4/5CR
2020-11-23 17:39:53 1°C 49.125% 3.44V 0,0,0,0,0,0,0,0,0,0,0,0 v255 52.1331 / 6.72049 368 - -90 13.2 867.3Mhz, SF9BW125, 4/5CR
2020-11-23 17:23:42 1.5625°C 44.75% 3.44V 0,0,0,0,0,0,0,0,0,0,0,0 v255 52.1331 / 6.72049 367 - -90 13.2 868.1Mhz, SF9BW125, 4/5CR
2020-11-23 17:07:31 2.125°C 51.125% 3.44V 0,0,0,0,0,0,0,0,0,0,0,0 v255 52.1331 / 6.72049 366 - -87 12.2 867.1Mhz, SF9BW125, 4/5CR
- -118 -12 867.1Mhz, SF9BW125, 4/5CR
2020-11-23 16:51:19 2.5°C 29.0625% 3.44V 0,0,0,0,0,0,0,0,0,0,0,0 v255 52.1331 / 6.72049 365 - -89 9.8 868.5Mhz, SF9BW125, 4/5CR
2020-11-23 16:35:07 3.125°C 28.6875% 3.44V 0,0,0,0,0,0,0,0,0,0,0,0 v255 52.1331 / 6.72049 364 - -93 13.5 867.9Mhz, SF9BW125, 4/5CR
2020-11-23 16:18:55 4.0625°C 30.125% 3.43V 0,0,0,0,0,0,0,0,0,0,0,0 v255 52.1331 / 6.72049 363 - -89 13.2 868.3Mhz, SF9BW125, 4/5CR
2020-11-23 16:02:43 5.0625°C 74.375% 3.43V 0,0,0,0,0,0,0,0,0,0,0,0 v255 52.1331 / 6.72049 362 - -90 12.5 867.7Mhz, SF9BW125, 4/5CR
2020-11-23 15:46:31 6°C 90.625% 3.43V 0,0,0,0,0,0,0,0,0,0,0,0 v255 52.1331 / 6.72049 361 - -93 13.5 868.1Mhz, SF9BW125, 4/5CR
2020-11-23 15:30:18 6.9375°C -1.0625% 3.43V 0,0,0,0,0,0,0,0,0,0,0,0 v255 52.1331 / 6.72049 360 - -95 8 867.5Mhz, SF9BW125, 4/5CR
2020-11-23 15:14:05 7.5625°C 115.688% 3.43V 0,0,0,0,0,0,0,0,0,0,0,0 v255 52.1331 / 6.72049 359 - -89 9.8 868.5Mhz, SF9BW125, 4/5CR
2020-11-23 14:57:53 8.1875°C 87.9375% 3.43V 0,0,0,0,0,0,0,0,0,0,0,0 v255 52.1331 / 6.72049 358 - -93 13 867.3Mhz, SF9BW125, 4/5CR
- -117 -12.5 867.3Mhz, SF9BW125, 4/5CR
2020-11-23 14:41:40 8.6875°C 88.3125% 3.43V 0,0,0,0,0,0,0,0,0,0,0,0 v255 52.1331 / 6.72049 357 - -89 13.5 868.3Mhz, SF9BW125, 4/5CR
2020-11-23 14:25:27 9.0625°C 87.9375% 3.43V 0,0,0,0,0,0,0,0,0,0,0,0 v255 52.1331 / 6.72049 356 - -91 12.2 867.1Mhz, SF9BW125, 4/5CR
- -120 -13.5 867.1Mhz, SF9BW125, 4/5CR
2020-11-23 14:09:14 9.25°C 88.25% 3.43V 0,0,0,0,0,0,0,0,0,0,0,0 v255 52.1331 / 6.72049 355 - -93 12.8 868.1Mhz, SF9BW125, 4/5CR
2020-11-23 13:53:01 9.125°C 87.9375% 3.43V 0,0,0,0,0,0,0,0,0,0,0,0 v255 52.1331 / 6.72049 354 - -90 12.8 867.9Mhz, SF9BW125, 4/5CR
2020-11-23 13:36:47 9.25°C 88.1875% 3.43V 0,0,0,0,0,0,0,0,0,0,0,0 v255 52.1331 / 6.72049 353 - -87 10 868.5Mhz, SF9BW125, 4/5CR
2020-11-23 13:20:34 9.125°C 87.9375% 3.43V 0,0,0,0,0,0,0,0,0,0,0,0 v255 52.1331 / 6.72049 352 - -90 13.2 867.7Mhz, SF9BW125, 4/5CR
2020-11-23 13:04:21 9.1875°C 48.1875% 3.43V 0,0,0,0,0,0,0,0,0,0,0,0 v255 52.1331 / 6.72049 351 - -87 13 868.3Mhz, SF9BW125, 4/5CR
2020-11-23 12:48:08 8.9375°C 57.8125% 3.43V 0,0,0,0,0,0,0,0,0,0,0,0 v255 52.1331 / 6.72049 350 - -91 9.5 867.5Mhz, SF9BW125, 4/5CR
2020-11-23 12:31:55 8.5625°C 117.688% 3.43V 0,0,0,0,0,0,0,0,0,0,0,0 v255 52.1331 / 6.72049 349 - -93 13.8 868.1Mhz, SF9BW125, 4/5CR
2020-11-23 12:15:42 7.6875°C 115.438% 3.43V 0,0,0,0,0,0,0,0,0,0,0,0 v255 52.1331 / 6.72049 348 - -91 12.8 867.3Mhz, SF9BW125, 4/5CR
- -120 -13 867.3Mhz, SF9BW125, 4/5CR
2020-11-23 11:59:30 6.8125°C 4.125% 3.43V 0,0,0,0,0,0,0,0,0,0,0,0 v255 52.1331 / 6.72049 347 - -87 9.8 868.5Mhz, SF9BW125, 4/5CR
2020-11-23 11:43:17 5.9375°C 77.4375% 3.43V 0,0,0,0,0,0,0,0,0,0,0,0 v255 52.1331 / 6.72049 346 - -90 12 867.1Mhz, SF9BW125, 4/5CR
- -119 -10.2 867.1Mhz, SF9BW125, 4/5CR
2020-11-23 11:27:05 5.4375°C 87.5% 3.43V 0,0,0,0,0,0,0,0,0,0,0,0 v255 52.1331 / 6.72049 345 - -91 12 868.3Mhz, SF9BW125, 4/5CR
2020-11-23 11:10:53 5°C 92.75% 3.43V 0,0,0,0,0,0,0,0,0,0,0,0 v255 52.1331 / 6.72049 344 - -93 12.5 867.9Mhz, SF9BW125, 4/5CR
2020-11-23 10:54:40 4.6875°C 100.188% 3.43V 0,0,0,0,0,0,0,0,0,0,0,0 v255 52.1331 / 6.72049 343 - -95 13.8 868.1Mhz, SF9BW125, 4/5CR
2020-11-23 10:38:28 4.0625°C 104.188% 3.43V 0,0,0,0,0,0,0,0,0,0,0,0 v255 52.1331 / 6.72049 342 - -93 13.5 867.7Mhz, SF9BW125, 4/5CR
2020-11-23 10:22:17 3.4375°C 106.438% 3.44V 0,0,0,0,0,0,0,0,0,0,0,0 v255 52.1331 / 6.72049 341 - -89 9 868.5Mhz, SF9BW125, 4/5CR
2020-11-23 10:06:05 2.75°C 107.062% 3.44V 0,0,0,0,0,0,0,0,0,0,0,0 v255 52.1331 / 6.72049 340 - -93 9.2 867.5Mhz, SF9BW125, 4/5CR
- -118 -14.8 867.5Mhz, SF9BW125, 4/5CR
2020-11-23 09:49:53 2.0625°C 107.375% 3.44V 0,0,0,0,0,0,0,0,0,0,0,0 v255 52.1331 / 6.72049 339 - -91 12.8 868.3Mhz, SF9BW125, 4/5CR
2020-11-23 09:33:42 1.25°C 107.062% 3.44V 0,0,0,0,0,0,0,0,0,0,0,0 v255 52.1331 / 6.72049 338 - -93 14.2 867.3Mhz, SF9BW125, 4/5CR
- -119 -13.8 867.3Mhz, SF9BW125, 4/5CR
2020-11-23 09:17:30 0.8125°C 106.688% 3.44V 0,0,0,0,0,0,0,0,0,0,0,0 v255 52.1331 / 6.72049 337 - -91 13.2 868.1Mhz, SF9BW125, 4/5CR
2020-11-23 09:01:19 0°C 105.938% 3.44V 0,0,0,0,0,0,0,0,0,0,0,0 v255 52.1331 / 6.72049 336 - -91 12.8 867.1Mhz, SF9BW125, 4/5CR
- -121 -10.8 867.1Mhz, SF9BW125, 4/5CR
2020-11-23 08:45:08 -0.375°C 106.312% 3.44V 0,0,0,0,0,0,0,0,0,0,0,0 v255 52.1331 / 6.72049 335 - -91 9.2 868.5Mhz, SF9BW125, 4/5CR
2020-11-23 08:28:57 -0.375°C 107.625% 3.44V 0,0,0,0,0,0,0,0,0,0,0,0 v255 52.1331 / 6.72049 334 - -93 12.2 867.9Mhz, SF9BW125, 4/5CR
2020-11-23 08:12:47 -0.375°C 108.938% 3.44V 0,0,0,0,0,0,0,0,0,0,0,0 v255 52.1331 / 6.72049 333 - -93 12.5 868.3Mhz, SF9BW125, 4/5CR
2020-11-23 07:56:36 -0.25°C 109.812% 3.44V 0,0,0,0,0,0,0,0,0,0,0,0 v255 52.1331 / 6.72049 332 - -95 12.2 867.7Mhz, SF9BW125, 4/5CR
2020-11-23 07:40:25 0°C 110.5% 3.44V 0,0,0,0,0,0,0,0,0,0,0,0 v255 52.1331 / 6.72049 331 - -90 12.2 868.1Mhz, SF9BW125, 4/5CR
2020-11-23 07:24:14 -0.0625°C 111.312% 3.44V 0,0,0,0,0,0,0,0,0,0,0,0 v255 52.1331 / 6.72049 330 - -95 9.8 867.5Mhz, SF9BW125, 4/5CR
2020-11-23 07:08:03 0°C 112.625% 3.44V 0,0,0,0,0,0,0,0,0,0,0,0 v255 52.1331 / 6.72049 329 - -90 8.8 868.5Mhz, SF9BW125, 4/5CR
2020-11-23 06:51:52 0.4375°C 113.375% 3.44V 0,0,0,0,0,0,0,0,0,0,0,0 v255 52.1331 / 6.72049 328 - -93 13.2 867.3Mhz, SF9BW125, 4/5CR
- -118 -11.5 867.3Mhz, SF9BW125, 4/5CR
2020-11-23 06:35:40 1°C 113.312% 3.44V 0,0,0,0,0,0,0,0,0,0,0,0 v255 52.1331 / 6.72049 327 - -91 12.8 868.3Mhz, SF9BW125, 4/5CR
2020-11-23 06:19:29 1.3125°C 113.562% 3.44V 0,0,0,0,0,0,0,0,0,0,0,0 v255 52.1331 / 6.72049 326 - -93 12.5 867.1Mhz, SF9BW125, 4/5CR
- -120 -9 867.1Mhz, SF9BW125, 4/5CR
2020-11-23 06:03:18 0.9375°C 113.875% 3.44V 0,0,0,0,0,0,0,0,0,0,0,0 v255 52.1331 / 6.72049 325 - -91 13 868.1Mhz, SF9BW125, 4/5CR
2020-11-23 05:47:06 0.4375°C 114.562% 3.44V 0,0,0,0,0,0,0,0,0,0,0,0 v255 52.1331 / 6.72049 324 - -95 12.5 867.9Mhz, SF9BW125, 4/5CR
2020-11-23 05:30:55 0.625°C 115.25% 3.44V 0,0,0,0,0,0,0,0,0,0,0,0 v255 52.1331 / 6.72049 323 - -91 9.2 868.5Mhz, SF9BW125, 4/5CR
2020-11-23 05:14:44 1.1875°C 115.25% 3.44V 0,0,0,0,0,0,0,0,0,0,0,0 v255 52.1331 / 6.72049 322 - -95 13.5 867.7Mhz, SF9BW125, 4/5CR
2020-11-23 04:58:33 1.125°C 115.938% 3.44V 0,0,0,0,0,0,0,0,0,0,0,0 v255 52.1331 / 6.72049 321 - -89 12.2 868.3Mhz, SF9BW125, 4/5CR
2020-11-23 04:42:21 1°C 116.062% 3.44V 0,0,0,0,0,0,0,0,0,0,0,0 v255 52.1331 / 6.72049 320 - -89 9.8 867.5Mhz, SF9BW125, 4/5CR
2020-11-23 04:26:10 1.0625°C 116.438% 3.44V 0,0,0,0,0,0,0,0,0,0,0,0 v255 52.1331 / 6.72049 319 - -93 13 868.1Mhz, SF9BW125, 4/5CR
2020-11-23 04:09:59 1.0625°C 116.625% 3.44V 0,0,0,0,0,0,0,0,0,0,0,0 v255 52.1331 / 6.72049 318 - -118 -12 867.3Mhz, SF9BW125, 4/5CR
2020-11-23 03:37:36 1.3125°C 116.75% 3.44V 0,0,0,0,0,0,0,0,0,0,0,0 v255 52.1331 / 6.72049 316 - -120 -10 867.1Mhz, SF9BW125, 4/5CR
2020-11-23 02:32:51 1.375°C 117.062% 3.44V 0,0,0,0,0,0,0,0,0,0,0,0 v255 52.1331 / 6.72049 312 - -93 13 867.7Mhz, SF9BW125, 4/5CR
2020-11-23 02:16:39 1.875°C 116.812% 3.44V 0,0,0,0,0,0,0,0,0,0,0,0 v255 52.1331 / 6.72049 311 - -87 8.8 868.5Mhz, SF9BW125, 4/5CR
2020-11-23 02:00:28 2°C 116.375% 3.44V 0,0,0,0,0,0,0,0,0,0,0,0 v255 52.1331 / 6.72049 310 - -93 9 867.5Mhz, SF9BW125, 4/5CR
2020-11-23 01:44:16 2.0625°C 116.188% 3.44V 0,0,0,0,0,0,0,0,0,0,0,0 v255 52.1331 / 6.72049 309 - -95 12.8 868.3Mhz, SF9BW125, 4/5CR
2020-11-23 01:28:05 1.75°C 115.875% 3.44V 0,0,0,0,0,0,0,0,0,0,0,0 v255 52.1331 / 6.72049 308 - -93 13.2 867.3Mhz, SF9BW125, 4/5CR
- -118 -10.2 867.3Mhz, SF9BW125, 4/5CR
2020-11-23 01:11:53 1.4375°C 116% 3.44V 0,0,0,0,0,0,0,0,0,0,0,0 v255 52.1331 / 6.72049 307 - -93 14 868.1Mhz, SF9BW125, 4/5CR
2020-11-23 00:55:42 1.5625°C 115.25% 3.44V 0,0,0,0,0,0,0,0,0,0,0,0 v255 52.1331 / 6.72049 306 - -93 13.2 867.1Mhz, SF9BW125, 4/5CR
- -120 -10.2 867.1Mhz, SF9BW125, 4/5CR
2020-11-23 00:39:30 2.0625°C 114.812% 3.44V 0,0,0,0,0,0,0,0,0,0,0,0 v255 52.1331 / 6.72049 305 - -91 9.8 868.5Mhz, SF9BW125, 4/5CR
2020-11-23 00:23:19 2.3125°C 114.125% 3.44V 0,0,0,0,0,0,0,0,0,0,0,0 v255 52.1331 / 6.72049 304 - -90 11.8 867.9Mhz, SF9BW125, 4/5CR
2020-11-23 00:07:07 2.5°C 113.188% 3.44V 0,0,0,0,0,0,0,0,0,0,0,0 v255 52.1331 / 6.72049 303 - -93 12.8 868.3Mhz, SF9BW125, 4/5CR
2020-11-22 23:50:55 1.8125°C 110.688% 3.44V 0,0,0,0,0,0,0,0,0,0,0,0 v255 52.1331 / 6.72049 302 - -95 13.5 867.7Mhz, SF9BW125, 4/5CR
2020-11-22 23:34:44 1.5625°C 108.938% 3.44V 0,0,0,0,0,0,0,0,0,0,0,0 v255 52.1331 / 6.72049 301 - -93 13.2 868.1Mhz, SF9BW125, 4/5CR
2020-11-22 23:18:33 1.625°C 106.812% 3.44V 0,0,0,0,0,0,0,0,0,0,0,0 v255 52.1331 / 6.72049 300 - -89 9.2 867.5Mhz, SF9BW125, 4/5CR
2020-11-22 23:02:21 1.5625°C 105.25% 3.44V 0,0,0,0,0,0,0,0,0,0,0,0 v255 52.1331 / 6.72049 299 - -89 9.8 868.5Mhz, SF9BW125, 4/5CR
2020-11-22 22:46:10 1.625°C 102.438% 3.44V 0,0,0,0,0,0,0,0,0,0,0,0 v255 52.1331 / 6.72049 298 - -90 12.8 867.3Mhz, SF9BW125, 4/5CR
- -118 -11.5 867.3Mhz, SF9BW125, 4/5CR
2020-11-22 22:29:58 1.5°C 97% 3.44V 0,0,0,0,0,0,0,0,0,0,0,0 v255 52.1331 / 6.72049 297 - -90 12.2 868.3Mhz, SF9BW125, 4/5CR
2020-11-22 22:13:47 1.5625°C 97.125% 3.44V 0,0,0,0,0,0,0,0,0,0,0,0 v255 52.1331 / 6.72049 296 - -90 12.5 867.1Mhz, SF9BW125, 4/5CR
- -120 -10.2 867.1Mhz, SF9BW125, 4/5CR
2020-11-22 21:57:35 1.75°C 96.625% 3.44V 0,0,0,0,0,0,0,0,0,0,0,0 v255 52.1331 / 6.72049 295 - -93 13.8 868.1Mhz, SF9BW125, 4/5CR
2020-11-22 21:41:24 1.9375°C 96.125% 3.44V 0,0,0,0,0,0,0,0,0,0,0,0 v255 52.1331 / 6.72049 294 - -93 11.8 867.9Mhz, SF9BW125, 4/5CR
2020-11-22 21:25:12 1.8125°C 88.5% 3.44V 0,0,0,0,0,0,0,0,0,0,0,0 v255 52.1331 / 6.72049 293 - -90 9.2 868.5Mhz, SF9BW125, 4/5CR
2020-11-22 21:09:01 2.125°C 89.1875% 3.44V 0,0,0,0,0,0,0,0,0,0,0,0 v255 52.1331 / 6.72049 292 - -93 13.8 867.7Mhz, SF9BW125, 4/5CR
2020-11-22 20:52:49 2.3125°C 87.3125% 3.44V 0,0,0,0,0,0,0,0,0,0,0,0 v255 52.1331 / 6.72049 291 - -90 12.2 868.3Mhz, SF9BW125, 4/5CR
2020-11-22 20:36:37 2.8125°C 88.0625% 3.44V 0,0,0,0,0,0,0,0,0,0,0,0 v255 52.1331 / 6.72049 290 - -95 13.8 868.1Mhz, SF9BW125, 4/5CR
2020-11-22 20:20:26 3.0625°C 87.25% 3.43V 0,0,0,0,0,0,0,0,0,0,0,0 v255 52.1331 / 6.72049 289 - -89 9.2 868.5Mhz, SF9BW125, 4/5CR
2020-11-22 20:05:15 3.375°C 87.25% 3.44V 0,0,0,0,0,0,0,0,0,0,0,0 v255 52.1331 / 6.72049 288 - -85 7.8 867.5Mhz, SF12BW125, 4/5CR
- -120 -14 867.5Mhz, SF12BW125, 4/5CR
2020-11-22 19:48:06 4.3125°C 92.1875% 3.43V 0,0,0,0,0,0,0,0,0,0,0,0 v255 52.133 / 6.72018 287 - -90 12 868.3Mhz, SF9BW125, 4/5CR
2020-11-22 19:31:54 4°C 88.0625% 3.43V 0,0,0,0,0,0,0,0,0,0,0,0 v255 52.133 / 6.72018 286 - -87 12.5 867.3Mhz, SF9BW125, 4/5CR
- -118 -13 867.3Mhz, SF9BW125, 4/5CR
2020-11-22 19:15:42 4.3125°C 89% 3.43V 0,0,0,0,0,0,0,0,0,0,0,0 v255 52.133 / 6.72018 285 - -91 12 868.1Mhz, SF9BW125, 4/5CR
2020-11-22 18:59:30 4.1875°C 87.3125% 3.43V 0,0,0,0,0,0,0,0,0,0,0,0 v255 52.133 / 6.72018 284 - -89 12.5 867.1Mhz, SF9BW125, 4/5CR
- -120 -9.8 867.1Mhz, SF9BW125, 4/5CR
2020-11-22 18:43:18 4.3125°C 117.938% 3.44V 0,0,0,0,0,0,0,0,0,0,0,0 v255 52.133 / 6.72018 283 - -89 9 868.5Mhz, SF9BW125, 4/5CR
2020-11-22 18:27:06 4.75°C 101.375% 3.43V 0,0,0,0,0,0,0,0,0,0,0,0 v255 52.133 / 6.72018 282 - -93 14 867.9Mhz, SF9BW125, 4/5CR
2020-11-22 18:10:54 5.125°C 79.625% 3.43V 0,0,0,0,0,0,0,0,0,0,0,0 v255 52.133 / 6.72018 281 - -85 12.2 868.3Mhz, SF9BW125, 4/5CR
2020-11-22 17:54:41 5.875°C 73.625% 3.43V 0,0,0,0,0,0,0,0,0,0,0,0 v255 52.133 / 6.72018 280 - -91 12.5 867.7Mhz, SF9BW125, 4/5CR
2020-11-22 17:38:29 6.5625°C 98.5% 3.43V 0,0,0,0,0,0,0,0,0,0,0,0 v255 52.133 / 6.72018 279 - -93 12.5 868.1Mhz, SF9BW125, 4/5CR
2020-11-22 17:22:16 6.875°C 82.3125% 3.43V 0,0,0,0,0,0,0,0,0,0,0,0 v255 52.133 / 6.72018 278 - -87 8.8 867.5Mhz, SF9BW125, 4/5CR
2020-11-22 17:06:04 7.125°C 50.3125% 3.43V 0,0,0,0,0,0,0,0,0,0,0,0 v255 52.133 / 6.72018 277 - -89 10 868.5Mhz, SF9BW125, 4/5CR
2020-11-22 16:49:51 8.125°C 44% 3.43V 0,0,0,0,0,0,0,0,0,0,0,0 v255 52.133 / 6.72018 276 - -88 12.2 867.3Mhz, SF9BW125, 4/5CR
2020-11-22 16:33:38 8.875°C 38.6875% 3.43V 0,0,0,0,0,0,0,0,0,0,0,0 v255 52.133 / 6.72018 275 - -89 13 868.3Mhz, SF9BW125, 4/5CR
2020-11-22 16:17:25 9.4375°C 35.6875% 3.43V 0,0,0,0,0,0,0,0,0,0,0,0 v255 52.133 / 6.72018 274 - -87 12 867.1Mhz, SF9BW125, 4/5CR
- -120 -10.5 867.1Mhz, SF9BW125, 4/5CR
2020-11-22 16:01:12 9.75°C 35.875% 3.43V 0,0,0,0,0,0,0,0,0,0,0,0 v255 52.133 / 6.72018 273 - -93 12.8 868.1Mhz, SF9BW125, 4/5CR
2020-11-22 15:44:58 10°C 35% 3.43V 0,0,0,0,0,0,0,0,0,0,0,0 v255 52.133 / 6.72018 272 - -93 12.2 867.9Mhz, SF9BW125, 4/5CR
2020-11-22 15:28:45 10.0625°C 36.875% 3.43V 0,0,0,0,0,0,0,0,0,0,0,0 v255 52.133 / 6.72018 271 - -87 8.8 868.5Mhz, SF9BW125, 4/5CR
2020-11-22 15:12:32 10.125°C 40.0625% 3.43V 0,0,0,0,0,0,0,0,0,0,0,0 v255 52.133 / 6.72018 270 - -87 11 867.7Mhz, SF9BW125, 4/5CR
2020-11-22 14:56:19 10.25°C 41.0625% 3.43V 0,0,0,0,0,0,0,0,0,0,0,0 v255 52.133 / 6.72018 269 - -87 12.2 868.3Mhz, SF9BW125, 4/5CR
2020-11-22 14:40:05 10.25°C 33.6875% 3.43V 0,0,0,0,0,0,0,0,0,0,0,0 v255 52.133 / 6.72018 268 - -91 9.2 867.5Mhz, SF9BW125, 4/5CR
2020-11-22 14:23:52 10.375°C 33.625% 3.43V 0,0,0,0,0,0,0,0,0,0,0,0 v255 52.133 / 6.72018 267 - -91 12.2 868.1Mhz, SF9BW125, 4/5CR
2020-11-22 14:07:39 10.5625°C 30.125% 3.43V 0,0,0,0,0,0,0,0,0,0,0,0 v255 52.133 / 6.72018 266 - -91 12.2 867.3Mhz, SF9BW125, 4/5CR
- -119 -13 867.3Mhz, SF9BW125, 4/5CR
2020-11-22 13:51:25 10.4375°C 29.375% 3.43V 0,0,0,0,0,0,0,0,0,0,0,0 v255 52.133 / 6.72018 265 - -83 10 868.5Mhz, SF9BW125, 4/5CR
2020-11-22 13:35:12 10.3125°C 30.3125% 3.43V 0,0,0,0,0,0,0,0,0,0,0,0 v255 52.133 / 6.72018 264 - -93 13.5 867.1Mhz, SF9BW125, 4/5CR
- -119 -8.8 867.1Mhz, SF9BW125, 4/5CR
2020-11-22 13:18:59 10.25°C 32% 3.43V 0,0,0,0,0,0,0,0,0,0,0,0 v255 52.133 / 6.72018 263 - -91 13.2 868.3Mhz, SF9BW125, 4/5CR
2020-11-22 13:02:45 10.0625°C 33.75% 3.43V 0,0,0,0,0,0,0,0,0,0,0,0 v255 52.133 / 6.72018 262 - -91 13.8 867.9Mhz, SF9BW125, 4/5CR
2020-11-22 12:46:32 10.125°C 32.0625% 3.43V 0,0,0,0,0,0,0,0,0,0,0,0 v255 52.133 / 6.72018 261 - -93 12.2 868.1Mhz, SF9BW125, 4/5CR
2020-11-22 12:30:19 10.3125°C 31.375% 3.43V 0,0,0,0,0,0,0,0,0,0,0,0 v255 52.133 / 6.72018 260 - -91 13 867.7Mhz, SF9BW125, 4/5CR
2020-11-22 12:14:05 10.5°C 28.625% 3.43V 0,0,0,0,0,0,0,0,0,0,0,0 v255 52.133 / 6.72018 259 - -91 9.8 868.5Mhz, SF9BW125, 4/5CR
2020-11-22 11:57:52 10.1875°C 31.875% 3.43V 0,0,0,0,0,0,0,0,0,0,0,0 v255 52.133 / 6.72018 258 - -90 9.5 867.5Mhz, SF9BW125, 4/5CR
2020-11-22 11:41:39 10.375°C 35.4375% 3.43V 0,0,0,0,0,0,0,0,0,0,0,0 v255 52.133 / 6.72018 257 - -91 12.5 868.3Mhz, SF9BW125, 4/5CR
2020-11-22 11:25:26 10.5625°C 28.1875% 3.43V 0,0,0,0,0,0,0,0,0,0,0,0 v255 52.133 / 6.72018 256 - -90 13.2 867.3Mhz, SF9BW125, 4/5CR
2020-11-22 11:09:12 10.1875°C 28.375% 3.43V 0,0,0,0,0,0,0,0,0,0,0,0 v255 52.133 / 6.72018 255 - -91 12.5 868.1Mhz, SF9BW125, 4/5CR
2020-11-22 10:52:59 10°C 32.1875% 3.43V 0,0,0,0,0,0,0,0,0,0,0,0 v255 52.133 / 6.72018 254 - -91 12.5 867.1Mhz, SF9BW125, 4/5CR
- -120 -10 867.1Mhz, SF9BW125, 4/5CR
2020-11-22 10:36:46 9.75°C 35.875% 3.43V 0,0,0,0,0,0,0,0,0,0,0,0 v255 52.133 / 6.72018 253 - -84 9.2 868.5Mhz, SF9BW125, 4/5CR
2020-11-22 10:20:33 9.5625°C 42.625% 3.43V 0,0,0,0,0,0,0,0,0,0,0,0 v255 52.133 / 6.72018 252 - -89 12.2 867.9Mhz, SF9BW125, 4/5CR
2020-11-22 10:04:20 9.5°C 48.6875% 3.43V 0,0,0,0,0,0,0,0,0,0,0,0 v255 52.133 / 6.72018 251 - -89 12.2 868.3Mhz, SF9BW125, 4/5CR
2020-11-22 09:48:07 9.5°C 71.6875% 3.43V 0,0,0,0,0,0,0,0,0,0,0,0 v255 52.133 / 6.72018 250 - -90 12.2 867.7Mhz, SF9BW125, 4/5CR
2020-11-22 09:31:53 9.375°C 109.25% 3.43V 0,0,0,0,0,0,0,0,0,0,0,0 v255 52.133 / 6.72018 249 - -87 12 868.1Mhz, SF9BW125, 4/5CR
2020-11-22 09:15:40 9.1875°C 87.9375% 3.43V 0,0,0,0,0,0,0,0,0,0,0,0 v255 52.133 / 6.72018 248 - -90 9 867.5Mhz, SF9BW125, 4/5CR
2020-11-22 08:59:27 9.0625°C 88.125% 3.43V 0,0,0,0,0,0,0,0,0,0,0,0 v255 52.133 / 6.72018 247 - -91 9.2 868.5Mhz, SF9BW125, 4/5CR
2020-11-22 08:43:14 8.9375°C 88.3125% 3.43V 0,0,0,0,0,0,0,0,0,0,0,0 v255 52.133 / 6.72018 246 - -90 12.8 867.3Mhz, SF9BW125, 4/5CR
2020-11-22 08:27:01 8.875°C 88.5% 3.43V 0,0,0,0,0,0,0,0,0,0,0,0 v255 52.133 / 6.72018 245 - -85 12.5 868.3Mhz, SF9BW125, 4/5CR
2020-11-22 08:10:48 8.8125°C 88.5% 3.43V 0,0,0,0,0,0,0,0,0,0,0,0 v255 52.133 / 6.72018 244 - -95 14.5 867.1Mhz, SF9BW125, 4/5CR
- -119 -10.5 867.1Mhz, SF9BW125, 4/5CR
2020-11-22 07:54:35 8.75°C 88.5% 3.43V 0,0,0,0,0,0,0,0,0,0,0,0 v255 52.133 / 6.72018 243 - -88 10.5 868.1Mhz, SF9BW125, 4/5CR
2020-11-22 07:38:22 8.6875°C 88.3125% 3.43V 0,0,0,0,0,0,0,0,0,0,0,0 v255 52.133 / 6.72018 242 - -90 12.8 867.9Mhz, SF9BW125, 4/5CR
2020-11-22 07:22:09 8.625°C 88.375% 3.43V 0,0,0,0,0,0,0,0,0,0,0,0 v255 52.133 / 6.72018 241 - -84 9.8 868.5Mhz, SF9BW125, 4/5CR
2020-11-22 07:05:56 8.5625°C 88.1875% 3.43V 0,0,0,0,0,0,0,0,0,0,0,0 v255 52.133 / 6.72018 240 - -88 12.2 867.7Mhz, SF9BW125, 4/5CR
2020-11-22 06:49:43 8.4375°C 88.1875% 3.43V 0,0,0,0,0,0,0,0,0,0,0,0 v255 52.133 / 6.72018 239 - -89 12.8 868.3Mhz, SF9BW125, 4/5CR
2020-11-22 06:33:30 8.4375°C 88.1875% 3.43V 0,0,0,0,0,0,0,0,0,0,0,0 v255 52.133 / 6.72018 238 - -91 8.8 867.5Mhz, SF9BW125, 4/5CR
2020-11-22 06:17:17 8.375°C 88.0625% 3.43V 0,0,0,0,0,0,0,0,0,0,0,0 v255 52.133 / 6.72018 237 - -87 11.8 868.1Mhz, SF9BW125, 4/5CR
2020-11-22 06:01:04 8.3125°C 88.4375% 3.43V 0,0,0,0,0,0,0,0,0,0,0,0 v255 52.133 / 6.72018 236 - -91 13.8 867.3Mhz, SF9BW125, 4/5CR
2020-11-22 05:44:51 8.3125°C 88.375% 3.43V 0,0,0,0,0,0,0,0,0,0,0,0 v255 52.133 / 6.72018 235 - -85 9.5 868.5Mhz, SF9BW125, 4/5CR
2020-11-22 05:28:39 8.25°C 88.125% 3.43V 0,0,0,0,0,0,0,0,0,0,0,0 v255 52.133 / 6.72018 234 - -89 12.5 867.1Mhz, SF9BW125, 4/5CR
- -120 -11.5 867.1Mhz, SF9BW125, 4/5CR
2020-11-22 05:12:26 8.25°C 87.9375% 3.43V 0,0,0,0,0,0,0,0,0,0,0,0 v255 52.133 / 6.72018 233 - -85 12 868.3Mhz, SF9BW125, 4/5CR
2020-11-22 04:56:13 8.25°C 87.8125% 3.43V 0,0,0,0,0,0,0,0,0,0,0,0 v255 52.133 / 6.72018 232 - -95 14.2 867.9Mhz, SF9BW125, 4/5CR
2020-11-22 04:40:00 8.3125°C 87.8125% 3.43V 0,0,0,0,0,0,0,0,0,0,0,0 v255 52.133 / 6.72018 231 - -93 12.8 868.1Mhz, SF9BW125, 4/5CR
2020-11-22 04:23:47 8.25°C -2.0625% 3.43V 0,0,0,0,0,0,0,0,0,0,0,0 v255 52.133 / 6.72018 230 - -89 12.5 867.7Mhz, SF9BW125, 4/5CR
2020-11-22 03:51:21 8.3125°C 83.5625% 3.43V 0,0,0,0,0,0,0,0,0,0,0,0 v255 52.133 / 6.72018 228 - -119 -13.8 867.5Mhz, SF9BW125, 4/5CR
2020-11-22 02:30:16 8.3125°C 60.8125% 3.43V 0,0,0,0,0,0,0,0,0,0,0,0 v255 52.133 / 6.72018 223 - -91 9.5 868.5Mhz, SF9BW125, 4/5CR
2020-11-22 02:14:04 8.1875°C 66.125% 3.43V 0,0,0,0,0,0,0,0,0,0,0,0 v255 52.133 / 6.72018 222 - -95 13.8 867.9Mhz, SF9BW125, 4/5CR
2020-11-22 01:57:51 8.125°C 67.625% 3.43V 0,0,0,0,0,0,0,0,0,0,0,0 v255 52.133 / 6.72018 221 - -88 12 868.3Mhz, SF9BW125, 4/5CR
2020-11-22 01:41:38 8.0625°C 72% 3.43V 0,0,0,0,0,0,0,0,0,0,0,0 v255 52.133 / 6.72018 220 - -89 11.8 867.7Mhz, SF9BW125, 4/5CR
2020-11-22 01:25:25 8.25°C 63.5% 3.43V 0,0,0,0,0,0,0,0,0,0,0,0 v255 52.133 / 6.72018 219 - -90 12.5 868.1Mhz, SF9BW125, 4/5CR
2020-11-22 01:09:12 8.375°C 63.8125% 3.43V 0,0,0,0,0,0,0,0,0,0,0,0 v255 52.133 / 6.72018 218 - -91 9 867.5Mhz, SF9BW125, 4/5CR
2020-11-22 00:52:59 8.375°C 65.0625% 3.43V 0,0,0,0,0,0,0,0,0,0,0,0 v255 52.133 / 6.72018 217 - -91 9 868.5Mhz, SF9BW125, 4/5CR
2020-11-22 00:36:46 8.4375°C 67.6875% 3.43V 0,0,0,0,0,0,0,0,0,0,0,0 v255 52.133 / 6.72018 216 - -91 12 867.3Mhz, SF9BW125, 4/5CR
2020-11-22 00:20:33 8.5°C 72.9375% 3.43V 0,0,0,0,0,0,0,0,0,0,0,0 v255 52.133 / 6.72018 215 - -89 12.8 868.3Mhz, SF9BW125, 4/5CR
2020-11-22 00:04:20 8.5°C 74.125% 3.43V 0,0,0,0,0,0,0,0,0,0,0,0 v255 52.133 / 6.72018 214 - -97 12.2 867.1Mhz, SF9BW125, 4/5CR
- -121 -11.2 867.1Mhz, SF9BW125, 4/5CR
2020-11-21 23:48:08 8.4375°C 75.75% 3.43V 0,0,0,0,0,0,0,0,0,0,0,0 v255 52.133 / 6.72018 213 - -93 13.5 868.1Mhz, SF9BW125, 4/5CR
2020-11-21 23:31:55 8.4375°C 76.125% 3.43V 0,0,0,0,0,0,0,0,0,0,0,0 v255 52.133 / 6.72018 212 - -93 12.8 867.9Mhz, SF9BW125, 4/5CR
2020-11-21 23:15:42 8.4375°C 77.125% 3.43V 0,0,0,0,0,0,0,0,0,0,0,0 v255 52.133 / 6.72018 211 - -84 9.8 868.5Mhz, SF9BW125, 4/5CR
2020-11-21 22:59:29 8.3125°C 74.3125% 3.43V 0,0,0,0,0,0,0,0,0,0,0,0 v255 52.133 / 6.72018 210 - -95 12.8 867.7Mhz, SF9BW125, 4/5CR
2020-11-21 22:43:16 8.25°C 71.1875% 3.43V 0,0,0,0,0,0,0,0,0,0,0,0 v255 52.133 / 6.72018 209 - -89 12.2 868.3Mhz, SF9BW125, 4/5CR
2020-11-21 22:27:03 8.125°C 67.4375% 3.43V 0,0,0,0,0,0,0,0,0,0,0,0 v255 52.133 / 6.72018 208 - -88 9.8 867.5Mhz, SF9BW125, 4/5CR
2020-11-21 22:10:50 8.25°C 69.0625% 3.43V 0,0,0,0,0,0,0,0,0,0,0,0 v255 52.133 / 6.72018 207 - -95 13 868.1Mhz, SF9BW125, 4/5CR
2020-11-21 21:54:37 8.1875°C 65.4375% 3.43V 0,0,0,0,0,0,0,0,0,0,0,0 v255 52.133 / 6.72018 206 - -95 14 867.3Mhz, SF9BW125, 4/5CR
- -119 -10.2 867.3Mhz, SF9BW125, 4/5CR
2020-11-21 21:38:24 8.125°C 64.9375% 3.43V 0,0,0,0,0,0,0,0,0,0,0,0 v255 52.133 / 6.72018 205 - -87 10 868.5Mhz, SF9BW125, 4/5CR
2020-11-21 21:22:11 8.125°C 64.1875% 3.43V 0,0,0,0,0,0,0,0,0,0,0,0 v255 52.133 / 6.72018 204 - -95 13.8 867.1Mhz, SF9BW125, 4/5CR
- -119 -12.2 867.1Mhz, SF9BW125, 4/5CR
2020-11-21 21:05:59 8.1875°C 65.6875% 3.43V 0,0,0,0,0,0,0,0,0,0,0,0 v255 52.133 / 6.72018 203 - -95 12.8 868.3Mhz, SF9BW125, 4/5CR
2020-11-21 20:49:46 8.1875°C 65.1875% 3.43V 0,0,0,0,0,0,0,0,0,0,0,0 v255 52.133 / 6.72018 202 - -91 12.2 867.9Mhz, SF9BW125, 4/5CR
2020-11-21 20:33:33 8°C 65.5625% 3.43V 0,0,0,0,0,0,0,0,0,0,0,0 v255 52.133 / 6.72018 201 - -93 13.2 868.1Mhz, SF9BW125, 4/5CR
2020-11-21 20:17:20 8.0625°C 66.75% 3.43V 0,0,0,0,0,0,0,0,0,0,0,0 v255 52.133 / 6.72018 200 - -95 13.2 867.7Mhz, SF9BW125, 4/5CR
2020-11-21 20:01:07 8.0625°C 69.25% 3.43V 0,0,0,0,0,0,0,0,0,0,0,0 v255 52.133 / 6.72018 199 - -87 8.8 868.5Mhz, SF9BW125, 4/5CR
2020-11-21 19:44:54 8.25°C 75.75% 3.43V 0,0,0,0,0,0,0,0,0,0,0,0 v255 52.133 / 6.72018 198 - -93 9.5 867.5Mhz, SF9BW125, 4/5CR
2020-11-21 19:28:41 8.4375°C 87.375% 3.43V 0,0,0,0,0,0,0,0,0,0,0,0 v255 52.133 / 6.72018 197 - -91 13 868.3Mhz, SF9BW125, 4/5CR
2020-11-21 19:12:29 8.5625°C 117.562% 3.43V 0,0,0,0,0,0,0,0,0,0,0,0 v255 52.133 / 6.72018 196 - -99 12.2 867.3Mhz, SF9BW125, 4/5CR
- -118 -14 867.3Mhz, SF9BW125, 4/5CR
2020-11-21 18:56:16 8.625°C 87.875% 3.43V 0,0,0,0,0,0,0,0,0,0,0,0 v255 52.133 / 6.72018 195 - -93 14 868.1Mhz, SF9BW125, 4/5CR
2020-11-21 18:40:03 8.5°C 2.5625% 3.43V 0,0,0,0,0,0,0,0,0,0,0,0 v255 52.133 / 6.72018 194 - -91 9.2 868.5Mhz, SF9BW125, 4/5CR
2020-11-21 18:23:50 8.4375°C -0.625% 3.43V 0,0,0,0,0,0,0,0,0,0,0,0 v255 52.133 / 6.72018 193 - -91 12.8 868.3Mhz, SF9BW125, 4/5CR
2020-11-21 18:08:12 8.4375°C 3.625% 3.43V 0,0,0,0,0,0,0,0,0,0,0,0 v255 52.133 / 6.72018 192 - -91 10.5 867.1Mhz, SF12BW125, 4/5CR
- -119 -13 867.1Mhz, SF12BW125, 4/5CR
2020-11-21 17:51:26 8.3125°C 113.875% 3.43V 0,0,0,0,0,0,0,0,0,0,0,0 v255 52.1332 / 6.7204 191 - -89 12 868.1Mhz, SF9BW125, 4/5CR
2020-11-21 17:35:13 8.3125°C 1.5625% 3.43V 0,0,0,0,0,0,0,0,0,0,0,0 v255 52.1332 / 6.7204 190 - -95 12.8 867.9Mhz, SF9BW125, 4/5CR
2020-11-21 17:19:01 8.4375°C 87.8125% 3.43V 0,0,0,0,0,0,0,0,0,0,0,0 v255 52.1332 / 6.7204 189 - -84 8.5 868.5Mhz, SF9BW125, 4/5CR
2020-11-21 17:02:48 8.5°C 87.8125% 3.43V 0,0,0,0,0,0,0,0,0,0,0,0 v255 52.1332 / 6.7204 188 - -97 12.8 867.7Mhz, SF9BW125, 4/5CR
2020-11-21 16:46:35 8.4375°C 88% 3.43V 0,0,0,0,0,0,0,0,0,0,0,0 v255 52.1332 / 6.7204 187 - -91 13.2 868.3Mhz, SF9BW125, 4/5CR
2020-11-21 16:30:22 8.375°C 88.0625% 3.43V 0,0,0,0,0,0,0,0,0,0,0,0 v255 52.1332 / 6.7204 186 - -90 9 867.5Mhz, SF9BW125, 4/5CR
2020-11-21 16:14:09 8.4375°C 89.0625% 3.43V 0,0,0,0,0,0,0,0,0,0,0,0 v255 52.1332 / 6.7204 185 - -91 13.5 868.1Mhz, SF9BW125, 4/5CR
2020-11-21 15:57:56 8.4375°C 90.75% 3.43V 0,0,0,0,0,0,0,0,0,0,0,0 v255 52.1332 / 6.7204 184 - -93 13.2 867.3Mhz, SF9BW125, 4/5CR
- -117 -12.8 867.3Mhz, SF9BW125, 4/5CR
2020-11-21 15:41:43 8.5°C 93.9375% 3.43V 0,0,0,0,0,0,0,0,0,0,0,0 v255 52.1332 / 6.7204 183 - -93 9.2 868.5Mhz, SF9BW125, 4/5CR
2020-11-21 15:25:30 8.5°C 92.875% 3.43V 0,0,0,0,0,0,0,0,0,0,0,0 v255 52.1332 / 6.7204 182 - -93 13.2 867.1Mhz, SF9BW125, 4/5CR
2020-11-21 15:09:17 8.4375°C 91.75% 3.43V 0,0,0,0,0,0,0,0,0,0,0,0 v255 52.1332 / 6.7204 181 - -91 13 868.3Mhz, SF9BW125, 4/5CR
2020-11-21 14:53:04 8.3125°C 95.0625% 3.43V 0,0,0,0,0,0,0,0,0,0,0,0 v255 52.1332 / 6.7204 180 - -90 12 867.9Mhz, SF9BW125, 4/5CR
2020-11-21 14:36:51 8.25°C 91.8125% 3.43V 0,0,0,0,0,0,0,0,0,0,0,0 v255 52.1332 / 6.7204 179 - -93 13.2 868.1Mhz, SF9BW125, 4/5CR
2020-11-21 14:20:38 8.1875°C 92.5% 3.43V 0,0,0,0,0,0,0,0,0,0,0,0 v255 52.1332 / 6.7204 178 - -91 12.8 867.7Mhz, SF9BW125, 4/5CR
2020-11-21 14:04:25 8.0625°C 94% 3.43V 0,0,0,0,0,0,0,0,0,0,0,0 v255 52.1332 / 6.7204 177 - -87 10.2 868.5Mhz, SF9BW125, 4/5CR
2020-11-21 13:48:12 8.0625°C 91.0625% 3.43V 0,0,0,0,0,0,0,0,0,0,0,0 v255 52.1332 / 6.7204 176 - -97 9.5 867.5Mhz, SF9BW125, 4/5CR
2020-11-21 13:32:00 8°C 89.5625% 3.43V 0,0,0,0,0,0,0,0,0,0,0,0 v255 52.1332 / 6.7204 175 - -95 11.2 868.3Mhz, SF9BW125, 4/5CR
2020-11-21 13:15:47 7.875°C 89.0625% 3.43V 0,0,0,0,0,0,0,0,0,0,0,0 v255 52.1332 / 6.7204 174 - -96 11.2 867.3Mhz, SF9BW125, 4/5CR
2020-11-21 12:59:34 7.625°C 88.375% 3.43V 0,0,0,0,0,0,0,0,0,0,0,0 v255 52.1332 / 6.7204 173 - -95 13.8 868.1Mhz, SF9BW125, 4/5CR
2020-11-21 12:43:21 7.5625°C 88.375% 3.43V 0,0,0,0,0,0,0,0,0,0,0,0 v255 52.1332 / 6.7204 172 - -96 11.2 867.1Mhz, SF9BW125, 4/5CR
2020-11-21 12:27:08 7.4375°C 88.5625% 3.43V 0,0,0,0,0,0,0,0,0,0,0,0 v255 52.1332 / 6.7204 171 - -87 9.2 868.5Mhz, SF9BW125, 4/5CR
2020-11-21 12:10:56 7.125°C 6.1875% 3.43V 0,0,0,0,0,0,0,0,0,0,0,0 v255 52.1332 / 6.7204 170 - -97 12.2 867.9Mhz, SF9BW125, 4/5CR
2020-11-21 11:54:43 6.6875°C 97.375% 3.43V 0,0,0,0,0,0,0,0,0,0,0,0 v255 52.1332 / 6.7204 169 - -95 12.2 868.3Mhz, SF9BW125, 4/5CR
2020-11-21 11:38:31 6.5625°C 91.625% 3.43V 0,0,0,0,0,0,0,0,0,0,0,0 v255 52.1332 / 6.7204 168 - -91 13.2 867.7Mhz, SF9BW125, 4/5CR
2020-11-21 11:22:18 6.75°C 107.375% 3.43V 0,0,0,0,0,0,0,0,0,0,0,0 v255 52.1332 / 6.7204 167 - -93 12.8 868.1Mhz, SF9BW125, 4/5CR

Message count: 200
Node count: 1

Messages per node

Number of messages in list aboveNodes
200

Statistics per gateway

GatewayNumber of messagesNumber of nodesNodes
1971
321

Filter by dataset